SCP
1 1 2 1 1 1 1 1 1 1 1 1 1 1 1 1 1 1 1 1 2 1 1 1 1 2 2 3 3 4 4 4 5 5 4 4 4 4 4 3 3 3 3
2 2 2 2 1 1 1 2 1 1 1 1 1 1 1 1 1 1 1 2 2 2 2 2 2 2 2 3 3 4 5 5 5 5 5 5 5 5 5 4 4 3 3
2 2 2 2 2 2 2 2 2 1 1 1 1 1 1 1 1 1 2 2 2 2 2 2 2 3 3 3 3 4 5 5 6 6 6 6 6 6 6 6 5 4 4
2 2 3 2 2 2 2 2 2 1 1 1 1 1 1 1 1 1 1 1 2 2 2 2 3 3 3 2 2 3 4 5 5 6 6 6 6 7 7 7 6 5 5
2 2 3 3 2 2 2 1 1 1 1 1 1 1 1 1 1 1 1 1 1 1 1 2 2 2 2 2 2 2 2 3 4 4 4 5 6 6 7 7 7 6 6
2 2 2 2 2 2 1 1 0 0 0 0 0 0 0 0 0 0 0 1 1 1 1 1 1 1 1 1 1 1 1 1 2 2 2 3 4 5 6 7 7 6 6
1 1 1 1 1 1 0 0 0 0 0 0 0 0 0 0 0 0 0 0 0 0 0 0 1 1 1 1 1 1 1 1 0 1 1 1 3 3 4 4 5 5 5
0 0 0 0 0 0 0 0 0 0 0 0 0 0 0 0 0 0 0 0 0 0 0 0 0 0 0 0 0 1 0 0 0 0 0 0 1 1 2 2 3 3 3
0 0 0 0 0 0 0 0 0 0 0 0 0 0 0 0 0 0 0 0 0 0 0 0 0 0 0 0 0 0 0 0 0 0 0 0 0 0 0 1 1 1 2
0 0 0 0 0 0 0 0 0 0 0 0 0 0 0 0 0 0 0 0 0 0 0 0 0 0 0 0 0 0 0 0 0 0 0 0 0 0 0 0 0 0 1
0 0 0 0 0 0 0 0 0 0 0 0 0 0 0 0 0 0 0 0 0 0 0 0 0 0 0 0 0 0 0 0 0 0 0 0 0 0 0 0 0 0 0
0 0 0 0 0 0 0 0 0 0 0 0 0 0 0 0 0 0 0 0 0 0 0 0 0 0 0 0 0 0 0 0 0 0 0 0 0 0 0 0 0 0 0
0 0 0 0 0 0 0 0 0 0 0 0 0 0 0 0 0 0 0 0 0 0 0 0 0 0 0 0 0 0 0 0 0 0 0 0 0 0 0 0 0 0 0
0 0 0 0 0 0 0 0 0 0 0 0 0 0 0 0 0 0 0 0 0 0 0 0 0 0 0 0 0 0 0 0 0 0 0 0 0 0 0 0 0 0 0
0 0 0 0 0 0 0 0 0 0 0 0 0 0 0 0 0 0 0 0 0 0 0 0 0 0 0 0 0 0 0 0 0 0 0 0 0 0 0 0 0 0 0
0 0 0 0 0 0 0 0 0 0 0 0 0 0 0 0 0 0 0 0 0 0 0 0 0 0 0 0 0 0 0 0 0 0 0 0 0 0 0 0 0 0 0
0 0 0 0 0 0 0 0 0 0 0 0 0 0 0 0 0 0 0 0 0 0 0 0 0 0 0 0 0 0 0 0 0 0 0 0 0 0 0 0 0 0 0
0 0 0 0 0 0 0 0 0 0 0 0 0 0 0 0 0 0 0 0 0 0 0 0 0 0 0 0 0 0 0 0 0 0 0 0 0 0 0 0 0 0 0
0 0 0 0 0 0 0 0 0 0 0 0 0 0 0 0 0 0 0 0 0 0 0 0 0 0 0 0 0 0 0 0 0 0 0 0 0 0 0 0 0 0 0
0 0 0 0 0 0 0 0 0 0 0 0 0 0 0 0 0 0 0 0 0 0 0 0 0 0 0 0 0 0 0 0 0 0 0 0 0 0 0 0 0 0 0
0 0 0 0 0 0 0 0 0 0 0 0 0 0 0 0 0 0 0 0 0 0 0 0 0 0 0 0 0 0 0 0 0 0 0 0 0 0 0 0 0 0 0
0 0 0 0 0 0 0 0 0 0 0 0 0 0 0 0 0 0 0 0 0 0 0 0 0 0 0 0 0 0 0 0 0 0 0 0 0 0 0 0 0 0 0
0 0 0 0 0 0 0 0 0 0 0 0 0 0 0 0 0 0 0 0 0 0 0 0 0 0 0 0 0 0 0 0 0 0 0 0 0 0 0 0 0 0 0
0 0 0 0 0 0 0 0 0 0 0 0 0 0 0 0 0 0 0 0 0 0 0 0 0 0 0 0 0 0 0 0 0 0 0 0 0 0 0 0 0 0 0
0 0 0 0 0 0 0 0 0 0 0 0 0 0 0 0 0 0 0 0 0 0 0 0 0 0 0 0 0 0 0 0 0 0 0 0 0 0 0 0 0 0 0
0 0 0 0 0 0 0 0 0 0 0 0 0 0 0 0 0 0 0 0 0 0 0 0 0 0 0 0 0 0 0 0 0 0 0 0 0 0 0 0 0 0 0
Wind_Speed
1 2 2 2 3 3 2 3 5 5 3 3 3 4 4 5 4 3 4 9 9 8 8 7 8 9 9 10 11 12 12 12 12 12 12 12 13 13 12 12 12 13 15
4 4 4 5 5 4 4 4 5 4 3 4 5 5 5 5 5 5 2 5 8 7 8 9 10 11 12 12 12 12 12 13 12 13 13 13 14 15 15 15 15 15 16
3 3 3 4 3 3 5 5 6 4 4 5 4 5 4 5 5 5 5 3 2 8 11 12 11 12 13 15 15 14 13 12 12 12 12 13 13 14 15 15 15 16 16
4 4 6 5 4 4 5 5 5 5 5 5 5 5 4 4 5 5 5 5 4 5 7 12 13 14 15 17 17 17 15 12 10 9 10 11 11 11 12 14 15 16 17
5 6 6 4 4 5 5 5 5 4 5 5 5 5 3 4 5 8 7 6 4 5 6 8 13 16 17 18 17 17 15 13 11 11 11 12 12 11 10 11 13 15 17
7 5 7 6 5 4 3 2 1 2 3 4 6 6 4 5 5 6 8 7 4 5 6 6 4 5 12 16 16 15 12 12 12 13 13 13 13 12 12 11 11 12 14
7 6 5 4 3 3 2 2 2 4 4 3 4 4 4 5 7 4 4 4 4 5 5 5 3 4 4 7 11 10 11 13 14 14 13 14 15 16 16 15 14 13 13
5 6 4 2 4 1 1 1 3 2 4 4 4 4 4 4 3 5 4 4 6 6 7 8 6 4 4 3 4 10 11 11 13 15 16 17 18 19 19 19 19 17 15
6 5 4 4 4 3 4 3 4 4 3 5 4 2 3 3 6 5 7 5 5 4 5 6 7 5 6 5 5 7 8 3 8 13 15 16 18 19 20 21 22 22 20
5 5 4 4 4 3 4 4 7 3 4 4 4 3 3 3 2 4 5 5 6 6 6 6 6 6 6 5 6 8 9 6 9 13 16 17 18 19 20 21 22 23 22
4 4 5 4 2 2 5 4 3 2 3 4 4 5 5 4 3 4 6 5 4 4 4 4 4 5 6 6 6 9 13 7 6 10 13 16 18 19 20 20 21 20 20
5 5 5 2 1 3 3 2 2 2 1 1 2 4 4 4 4 5 6 6 5 4 5 5 6 5 5 6 10 14 8 8 9 10 12 15 17 19 19 20 20 18 18
7 4 5 2 2 2 1 1 1 2 3 2 2 4 3 3 4 5 6 7 7 6 6 6 7 5 6 6 7 12 8 8 10 11 12 14 16 17 18 18 18 17 17
6 4 3 2 0 1 1 3 2 4 2 2 5 5 4 5 4 5 5 7 9 7 6 7 6 7 7 7 6 7 5 8 12 14 13 14 16 16 17 17 16 15 15
3 4 2 1 1 2 2 2 4 4 4 5 5 6 6 5 5 5 5 5 8 11 10 8 6 7 6 7 8 5 6 10 14 14 15 16 16 16 17 16 15 15 15
4 1 1 1 2 3 3 4 4 5 5 5 5 7 6 6 5 5 5 5 6 9 12 9 7 7 8 11 13 9 8 14 17 14 15 16 17 17 17 16 15 14 15
1 1 2 3 3 4 5 5 5 6 6 6 7 7 7 7 6 6 6 6 7 8 11 9 7 7 9 9 8 8 10 10 8 14 16 15 14 16 16 15 14 14 14
1 2 3 4 5 6 5 5 5 6 6 7 8 8 8 8 8 7 6 7 7 7 9 10 7 7 9 9 9 9 11 11 7 10 8 6 7 9 12 13 13 12 11
2 3 4 5 5 5 4 6 8 9 9 9 9 9 8 8 8 8 9 9 8 9 7 8 9 7 8 9 9 11 11 8 8 5 1 1 5 7 10 11 11 10 10
4 4 4 5 6 7 9 10 10 9 8 8 9 8 7 7 8 8 8 8 9 8 8 8 8 7 7 8 8 7 6 4 3 2 4 6 8 10 12 12 12 12 11
5 6 6 7 7 6 8 8 8 9 9 9 8 7 8 11 13 9 10 9 10 9 9 8 8 8 8 7 7 5 5 4 4 1 3 4 5 5 6 9 12 14 12
6 6 7 7 6 6 5 6 6 8 9 9 8 8 9 10 11 14 19 19 16 12 10 9 9 10 11 10 8 7 6 6 5 1 1 5 4 5 4 3 2 4 5
6 6 6 6 4 4 3 2 7 9 9 8 9 9 9 10 12 9 13 18 16 17 17 12 12 13 13 12 10 9 7 7 6 3 4 7 5 6 4 3 5 3 2
6 6 6 6 5 2 2 3 11 10 8 7 9 10 10 12 12 11 12 12 12 11 13 12 11 12 12 9 8 8 9 8 7 6 5 4 3 2 1 2 3 0 5
5 5 6 6 6 4 3 6 12 10 8 9 10 11 11 11 12 13 13 13 13 11 13 14 13 12 14 14 10 8 8 7 6 4 3 3 1 1 1 1 1 3 8
4 5 5 5 6 6 7 9 13 9 10 10 10 10 12 11 13 15 12 11 12 10 8 8 8 8 7 7 9 8 5 4 3 2 2 1 1 0 1 0 1 3 5
Wind_Direction
267 55 57 48 16 44 57 3 33 36 13 319 323 348 359 347 336 339 133 163 166 176 192 211 232 246 250 251 242 230 225 226 226 223 217 213 211 211 210 210 210 209 206
55 40 41 38 25 43 43 11 22 9 353 10 344 348 350 336 340 346 345 167 179 194 215 228 236 244 251 254 252 245 236 233 233 233 228 220 215 213 212 211 212 213 210
77 71 81 67 24 31 39 33 11 7 5 350 338 349 343 334 328 338 328 317 218 211 222 231 238 243 250 257 258 255 250 244 242 244 244 240 232 225 221 218 217 218 218
60 64 78 57 13 34 43 33 24 8 2 348 342 336 331 318 303 284 273 270 270 272 238 226 231 236 243 254 259 260 260 259 263 269 273 272 265 254 243 234 227 224 224
66 80 78 50 24 50 49 34 31 4 344 338 313 295 309 314 313 305 299 284 288 305 300 275 245 239 249 257 257 260 264 271 280 290 293 291 290 287 279 264 250 239 233
54 70 91 64 44 60 61 58 352 320 299 281 292 305 296 283 287 282 283 283 289 296 292 301 313 271 258 258 262 264 266 272 278 284 289 295 300 306 311 306 292 273 256
73 60 79 92 79 70 43 321 30 341 320 317 312 303 299 303 286 288 316 325 340 340 333 332 355 9 342 293 265 259 266 274 278 280 283 291 295 298 299 299 298 294 281
79 79 59 47 55 6 262 44 62 357 329 338 325 316 312 299 332 2 347 350 5 358 346 336 350 342 335 327 263 262 269 275 278 276 276 280 286 290 292 291 289 287 284
92 78 64 49 26 344 67 48 51 25 351 323 310 341 324 326 343 324 351 339 351 341 323 320 316 325 331 318 304 295 304 329 296 288 283 284 287 290 291 290 286 284 282
79 72 57 61 28 355 66 36 66 12 342 320 343 356 348 357 318 309 310 321 340 321 306 307 315 317 299 289 293 296 290 263 265 272 278 281 284 288 288 286 283 279 278
99 78 70 60 21 22 68 57 65 16 332 5 353 341 338 320 282 287 304 310 292 278 293 314 311 304 299 293 281 275 271 235 228 259 272 278 280 283 287 289 286 280 275
127 106 103 83 40 53 56 52 80 297 61 11 331 320 318 320 324 313 302 301 302 312 324 315 293 278 290 298 290 292 268 212 213 235 256 268 275 279 283 288 289 285 282
117 104 92 79 56 108 202 106 310 255 248 218 243 267 286 310 303 299 305 308 308 307 308 307 302 313 314 302 302 322 308 249 224 229 243 258 267 274 278 281 286 290 291
96 127 137 144 74 315 329 87 303 278 249 235 252 258 255 255 261 278 286 293 293 289 283 280 288 299 301 287 279 301 298 274 242 237 240 248 255 262 268 272 278 286 290
114 90 80 137 213 272 284 271 257 279 259 249 252 254 249 253 249 254 263 271 285 290 287 286 280 282 285 293 287 292 279 270 262 246 243 241 240 247 255 261 269 277 282
80 82 269 254 254 260 257 254 264 266 271 270 269 274 278 275 275 283 286 279 271 274 280 283 277 277 285 287 291 284 269 274 270 258 250 244 236 237 244 253 263 271 276
122 253 315 318 308 293 279 270 270 277 284 294 301 301 297 291 288 285 279 273 266 264 275 283 284 283 280 279 284 286 282 267 260 262 260 252 241 240 242 249 258 264 269
308 320 315 309 303 297 294 299 316 338 345 339 330 323 319 322 325 317 306 298 290 281 279 286 288 291 293 299 287 281 285 275 261 266 253 232 239 243 240 243 249 253 258
310 303 301 300 305 316 346 15 18 8 353 337 327 322 324 327 317 311 308 302 298 295 292 291 292 289 288 287 289 287 279 274 272 276 275 275 276 262 249 241 237 238 239
329 333 342 348 357 21 41 29 13 355 340 326 319 319 318 310 300 302 302 298 296 295 292 287 285 283 282 282 279 281 289 295 309 339 328 307 285 269 256 243 233 233 231
359 6 3 5 16 52 46 32 6 349 329 315 311 309 303 300 301 304 307 306 303 296 293 289 289 294 293 295 295 301 308 313 296 289 308 296 284 269 261 253 250 247 235
20 14 11 9 20 57 79 46 9 337 318 315 315 312 308 303 312 313 306 300 296 294 295 293 291 289 290 293 298 301 302 299 288 209 296 290 274 265 253 243 221 208 199
24 22 16 10 28 119 127 31 354 323 319 324 325 320 318 316 313 303 305 301 293 286 281 280 281 282 283 285 291 294 288 284 279 278 282 279 258 255 242 226 172 163 219
23 12 2 358 348 40 141 16 346 323 322 332 327 320 317 315 311 312 308 299 288 278 271 270 270 277 281 285 287 286 283 277 268 256 233 260 243 232 195 161 140 301 300
9 359 3 351 342 359 51 31 358 333 331 331 322 315 310 310 314 316 309 298 292 285 274 268 270 276 277 277 276 275 266 259 264 251 197 225 242 252 238 206 240 304 307
359 352 353 341 343 360 45 40 5 343 336 328 317 312 310 313 313 312 308 298 292 293 299 306 302 294 281 279 284 282 276 257 250 245 154 177 208 246 282 228 291 298 303